Location: Latina
(41.4670°N, 12.8670°E)
Time: 13:45:36
(UTC+01:00)

ISS - Visible Passes

Search period start: 24 January 2019 00:00
Search period end: 03 February 2019 00:00
Orbit: 404 x 410 km, 51.6° (Epoch: 24 January)

Date Brightness Start Highest point End Pass type
(mag) Time Alt. Az. Time Alt. Az. Time Alt. Az.
24 Jan -2.9 17:45:55 10° SSW 17:48:58 35° SE 17:52:02 10° ENE visible
24 Jan -1.9 19:22:31 10° W 19:24:47 28° NW 19:24:47 28° NW visible
25 Jan -3.2 18:30:50 10° WSW 18:34:03 50° NNW 18:35:41 25° NE visible
26 Jan -1.6 19:17:00 10° WNW 19:19:13 20° NNW 19:19:13 20° NNW visible
27 Jan -2.2 18:25:06 10° W 18:27:58 27° NNW 18:30:00 15° NNE visible
28 Jan -1.4 19:11:34 10° NW 19:13:26 15° NNW 19:13:26 15° NNW visible
29 Jan -1.7 18:19:34 10° WNW 18:21:58 18° NNW 18:24:07 11° NNE visible
30 Jan -1.4 19:05:52 10° NW 19:07:30 14° N 19:07:30 14° N visible
31 Jan -1.5 18:14:01 10° NW 18:16:00 15° N 18:17:58 10° NNE visible
01 Feb -1.6 18:59:43 10° NNW 19:01:32 15° N 19:01:32 15° N visible
02 Feb -1.5 18:08:08 10° NNW 18:10:01 14° N 18:11:54 10° NE visible
02 Feb -0.8 19:44:31 10° NW 19:44:55 12° NNW 19:44:55 12° NNW visible
